Regional Weather Roundup
Issued by NWS

Home | Current Version | Previous Version | Text Only | Print | Product List | Glossary On
Versions: 1 2 3 4 5 6 7 8 9 10 11 12 13 14 15 16 17 18 19 20 21 22 23 24 25 26 27 28 29 30 31 32 33 34 35 36 37 38 39 40 41 42 43 44 45 46 47 48 49 50
219
ASUS46 KPQR 091410
RWROR

OREGON REGIONAL WEATHER ROUNDUP
NATIONAL WEATHER SERVICE PORTLAND OR
600 AM PST TUE FEB 09 2016

NOTE: "FAIR" INDICATES FEW OR NO CLOUDS BELOW 12,000 FEET WITH
NO SIGNIFICANT WEATHER AND/OR OBSTRUCTIONS TO VISIBILITY.

ORZ001>013-091500-
NORTHWEST OREGON


CITY           SKY/WX    TMP DP  RH WIND       PRES   REMARKS
ASTORIA        CLEAR     50  40  68 E9        30.11F
NEWPORT        CLEAR     54  41  62 E14       30.14S
PORTLAND       CLEAR     49  36  61 SE14      30.20F
VANCOUVER WA   CLEAR     34  32  92 CALM      30.21F
SCAPPOOSE      CLEAR     38  36  92 W5        30.20F WCI  34
HILLSBORO      CLEAR     36  35  96 NW6       30.21S WCI  31
AURORA         CLEAR     37  36  96 CALM      30.21S FOG
MCMINNVILLE    CLEAR     41  36  82 N5        30.21S
SALEM          CLEAR     36  34  92 CALM      30.20S
CORVALLIS      MOCLDY    36  34  93 CALM      30.21S
EUGENE         FOG       36  35  96 CALM      30.20S VSB 1/4
$$

ORZ021-028-091500-
SOUTHWEST OREGON


CITY           SKY/WX    TMP DP  RH WIND       PRES   REMARKS
NORTH BEND     CLEAR     52  46  82 SE8       30.14R
BROOKINGS      CLEAR     50  45  83 E3        30.15R
ROSEBURG       CLOUDY    45  44  97 SE3       30.20S
SEXTON SUMMIT  LGT RAIN  50  27  40 E15G26    30.23S
MEDFORD        CLEAR     40  34  79 CALM      30.23R
$$

ORZ014>016-041-091500-
COLUMBIA GORGE


CITY           SKY/WX    TMP DP  RH WIND       PRES   REMARKS
TROUTDALE      CLEAR     48  35  60 E30G38    30.21F
THE DALLES     CLEAR     30  28  92 CALM      30.49S
$$

ORZ029>031-041-044-049-050-061>064-502-503-505>511-091500-
EASTERN OREGON


CITY           SKY/WX    TMP DP  RH WIND       PRES   REMARKS
REDMOND        FOG       30  27  88 W6        30.38F VSB 1/2 WCI  24
BEND           CLEAR     30  28  93 CALM      30.38S
PRINEVILLE     CLEAR     41  32  70 SE9       30.38F
KLAMATH FALLS  CLEAR     31  29  92 N5        30.37S WCI  26
LAKEVIEW       CLEAR     27  19  74 NW7       30.40F WCI  19
HERMISTON      CLEAR     28  26  92 SE3       30.47F
PENDLETON      PTCLDY    29  28  96 SE6       30.44F FOG     WCI  23
JOHN DAY       CLEAR     36  30  80 E9        30.43S WCI  29
MEACHAM        CLEAR     34  27  75 CALM      30.41F
LA GRANDE      CLEAR     30  23  74 NE9       30.49S WCI  22
BAKER CITY     CLOUDY    23  22  96 CALM      30.55S FOG
BURNS          MOCLDY    12   9  87 W9        30.49F FOG     WCI   0
ROME             N/A     31  29  92 NE6       30.51S WCI  25
ONTARIO        CLOUDY    31  28  89 CALM      30.64F
$$




USA.gov is the U.S. government's official web portal to all federal, state and local government web resources and services.